IZ0QWM-13 Scandriglia IT current weather conditions

sailwx.info

Wind from 152

Air temperature 6.1° C
Dewpoint 4.6° C

Last reported at 2015-Feb-01 15:45 UTC.
Time now 2015-Feb-01 16:39 UTC

Location: N 42°10' E 012°47'.
View on Google Maps.

See reports from other nearby stations

  
Tides and Currents Weather Stations Pressure Air Temp Water Temp Dewpoint Dewpoint Depression Visibility Wind Speed Wind Dir Waves Ship Positions
date/time (UTC)wind fromknots sea level pressurealtimeterstation pressurevisibilityair tempwater tempwave heightnotes
2015-Feb-01 15:45 152 6.1
2015-Feb-01 15:35 152 6.1
2015-Feb-01 15:25 152 6.1
2015-Feb-01 15:15 152 5.6
2015-Feb-01 15:05 132 5.0
2015-Feb-01 14:55 155 1 gusting 7 4.4
2015-Feb-01 14:45 205 4.4
2015-Feb-01 14:35 193 2 gusting 7 4.4
2015-Feb-01 14:25 153 4.4
2015-Feb-01 14:15 153 4.4
2015-Feb-01 14:05 153 4.4
2015-Feb-01 13:55 153 4.4
2015-Feb-01 13:45 184 3 gusting 7 4.4
2015-Feb-01 13:35 138 4.4
2015-Feb-01 13:25 184 4.4
2015-Feb-01 13:15 184 4.4
2015-Feb-01 13:05 184 3.9
2015-Feb-01 12:55 184 3.9
2015-Feb-01 12:45 184 3.9
2015-Feb-01 12:35 101 3.9
2015-Feb-01 12:25 101 3.9
2015-Feb-01 12:15 101 3.3
2015-Feb-01 12:05 094 3.3
2015-Feb-01 11:55 094 3.3
2015-Feb-01 11:45 094 2.8
2015-Feb-01 11:35 094 2.8
2015-Feb-01 11:25 319 2.8
2015-Feb-01 11:15 319 2.2
2015-Feb-01 11:05 246 2.8
2015-Feb-01 10:55 298 6 gusting 14 4.4
2015-Feb-01 10:45 231 3 gusting 14 5.6
2015-Feb-01 10:35 248 1 gusting 12 7.2
2015-Feb-01 10:25 177 7 gusting 11 6.7
2015-Feb-01 10:15 218 6.7
2015-Feb-01 10:05 218 6.1
2015-Feb-01 09:55 218 5.6
2015-Feb-01 09:45 218 5.6
2015-Feb-01 09:35 218 5.0
2015-Feb-01 09:25 218 4.4
2015-Feb-01 09:15 218 3.9
2015-Feb-01 09:05 278 4.4
2015-Feb-01 08:55 060 4.4
2015-Feb-01 08:45 060 4.4
2015-Feb-01 08:35 129 3.9
2015-Feb-01 08:25 129 3.9
2015-Feb-01 08:15 129 3.3
2015-Feb-01 08:05 134 3.3
2015-Feb-01 07:55 201 2.8
2015-Feb-01 07:45 201 2.2
2015-Feb-01 07:35 201 2.2
2015-Feb-01 07:25 201 2.2
2015-Feb-01 07:15 201 2.2
2015-Feb-01 07:05 201 2.2
2015-Feb-01 06:55 201 2.2
2015-Feb-01 06:45 201 2.2
2015-Feb-01 06:35 201 1.7
2015-Feb-01 06:25 201 1.7
2015-Feb-01 06:15 201 1.7
2015-Feb-01 06:05 201 1.7
2015-Feb-01 05:55 201 1.7
2015-Feb-01 05:45 201 1.7
2015-Feb-01 05:35 201 1.7
2015-Feb-01 05:25 329 1.1
2015-Feb-01 05:15 084 1.1
2015-Feb-01 05:05 084 1.1
2015-Feb-01 04:55 084 1.7
2015-Feb-01 04:45 084 1.7
2015-Feb-01 04:35 084 1.7
2015-Feb-01 04:25 084 1.7
2015-Feb-01 04:15 084 1.1
2015-Feb-01 04:05 084 1.1
2015-Feb-01 03:55 084 1.1
2015-Feb-01 03:45 084 1.7
2015-Feb-01 03:35 084 1.7
2015-Feb-01 03:25 084 1.7
2015-Feb-01 03:15 084 1.1
2015-Feb-01 03:05 084 1.1
2015-Feb-01 02:55 084 1.1
2015-Feb-01 02:45 084 1.7
2015-Feb-01 02:35 084 1.7
2015-Feb-01 02:25 084 1.7
2015-Feb-01 02:15 084 1.7
2015-Feb-01 02:05 084 2.2
2015-Feb-01 01:55 084 2.2
2015-Feb-01 01:45 084 2.2
2015-Feb-01 01:35 084 1.7
2015-Feb-01 01:25 084 2.2
2015-Feb-01 01:15 084 2.2
2015-Feb-01 01:05 084 2.8
2015-Feb-01 00:55 084 2.2
2015-Feb-01 00:45 084 2.2
2015-Feb-01 00:35 084 2.8
2015-Feb-01 00:25 084 2.8
2015-Feb-01 00:15 084 2.8
2015-Feb-01 00:05 084 2.8
2015-Jan-31 23:55 084 3.3
2015-Jan-31 23:45 084 3.3
2015-Jan-31 23:35 084 3.3
2015-Jan-31 23:25 084 3.3
2015-Jan-31 23:15 084 3.3
2015-Jan-31 23:05 084 3.9
2015-Jan-31 22:55 084 3.9
2015-Jan-31 22:45 084 3.9
2015-Jan-31 22:35 084 4.4
2015-Jan-31 22:25 084 4.4
2015-Jan-31 22:15 084 4.4
2015-Jan-31 22:05 084 4.4
2015-Jan-31 21:55 084 4.4
2015-Jan-31 21:45 084 4.4
2015-Jan-31 21:35 084 4.4
2015-Jan-31 21:25 084 4.4
2015-Jan-31 21:15 084 4.4
2015-Jan-31 21:05 084 4.4
2015-Jan-31 20:55 084 5.0
2015-Jan-31 20:45 084 5.0
2015-Jan-31 20:35 084 5.0
2015-Jan-31 20:25 084 5.0
2015-Jan-31 20:15 146 5.6
2015-Jan-31 20:05 146 5.6
2015-Jan-31 19:55 146 5.6
2015-Jan-31 19:45 146 5.6
2015-Jan-31 19:35 146 5.6
2015-Jan-31 19:25 146 5.6
2015-Jan-31 19:15 146 5.6
2015-Jan-31 19:05 146 5.6
2015-Jan-31 18:55 146 5.6
2015-Jan-31 18:45 146 5.6
2015-Jan-31 18:35 146 5.6
2015-Jan-31 18:25 146 5.6
2015-Jan-31 18:15 146 5.6
2015-Jan-31 18:05 146 5.6
2015-Jan-31 17:55 146 5.6
2015-Jan-31 17:45 146 5.6
2015-Jan-31 17:35 146 5.6
2015-Jan-31 17:25 146 6.1
2015-Jan-31 17:15 146 6.1
2015-Jan-31 17:05 146 6.1
2015-Jan-31 16:55 146 6.1
2015-Jan-31 16:45 146 6.1
2015-Jan-31 16:35 146 6.1
2015-Jan-31 16:25 146 6.1
2015-Jan-31 16:15 146 6.7
2015-Jan-31 16:05 146 6.1
2015-Jan-31 15:55 146 6.1
2015-Jan-31 15:45 146 6.7
2015-Jan-31 15:35 146 6.7
2015-Jan-31 15:25 146 6.7
2015-Jan-31 15:15 146 6.7
2015-Jan-31 15:05 146 7.2
2015-Jan-31 14:55 146 7.2
2015-Jan-31 14:45 146 7.2
2015-Jan-31 14:35 146 7.2
2015-Jan-31 14:25 146 7.2
2015-Jan-31 14:15 146 7.2
2015-Jan-31 14:05 146 7.2
2015-Jan-31 13:55 146 7.8
2015-Jan-31 13:45 146 8.3
2015-Jan-31 13:35 146 8.9
2015-Jan-31 13:25 024 10.0
2015-Jan-31 13:15 024 10.6
2015-Jan-31 13:05 024 10.6
2015-Jan-31 12:55 024 10.0
2015-Jan-31 12:45 024 10.0
2015-Jan-31 12:35 024 10.0
2015-Jan-31 12:25 024 9.4
2015-Jan-31 12:15 024 9.4
2015-Jan-31 12:05 024 8.9
2015-Jan-31 11:55 024 8.9
2015-Jan-31 11:45 024 8.3
2015-Jan-31 11:35 131 7.8
2015-Jan-31 11:25 131 7.8
2015-Jan-31 11:15 131 7.2
2015-Jan-31 11:05 069 7.8
2015-Jan-31 10:55 090 1 gusting 6 7.2
2015-Jan-31 10:45 225 2 gusting 6 7.2
2015-Jan-31 10:35 159 2 gusting 6 7.2
2015-Jan-31 10:25 044 7.2
2015-Jan-31 10:15 044 7.2
2015-Jan-31 10:05 044 6.7
2015-Jan-31 09:55 044 6.7
2015-Jan-31 09:45 044 6.1
2015-Jan-31 09:35 044 6.1
2015-Jan-31 09:25 044 5.6
2015-Jan-31 09:15 044 5.6
2015-Jan-31 09:05 044 4.4
2015-Jan-31 08:55 044 3.9
2015-Jan-31 08:45 044 3.9
2015-Jan-31 08:35 044 3.9
2015-Jan-31 08:25 044 3.3
2015-Jan-31 08:15 044 3.3
2015-Jan-31 08:05 077 2.8
2015-Jan-31 07:55 077 2.8
2015-Jan-31 07:45 077 2.8
2015-Jan-31 07:35 101 3 gusting 5 2.2
2015-Jan-31 07:25 084 2.2
2015-Jan-31 07:15 066 2.2
2015-Jan-31 07:05 066 2.8
2015-Jan-31 06:55 104 2.2
2015-Jan-31 06:45 104 1.7
2015-Jan-31 06:35 079 1.7
2015-Jan-31 06:25 079 1.7
2015-Jan-31 06:15 101 2.2
2015-Jan-31 06:05 075 1.7
2015-Jan-31 05:55 075 1.7
2015-Jan-31 05:45 075 1.7
2015-Jan-31 05:35 075 2.2
2015-Jan-31 05:25 063 2.2
2015-Jan-31 05:15 063 2.2
2015-Jan-31 05:05 096 2.2
2015-Jan-31 04:55 104 2.2
2015-Jan-31 04:45 105 1 gusting 5 2.2
2015-Jan-31 04:35 084 2.2
2015-Jan-31 04:25 084 2.2
2015-Jan-31 04:15 084 2.2
2015-Jan-31 04:05 065 2.8
2015-Jan-31 03:55 065 2.8
2015-Jan-31 03:45 065 2.8
2015-Jan-31 03:35 065 2.8
2015-Jan-31 03:25 065 3.3
2015-Jan-31 03:15 037 3.3
2015-Jan-31 03:05 038 3.3
2015-Jan-31 02:55 058 3.3
2015-Jan-31 02:45 058 3.3
2015-Jan-31 02:35 058 3.3
2015-Jan-31 02:25 058 3.3
2015-Jan-31 02:15 058 3.3
2015-Jan-31 02:05 260 2 gusting 4 3.9
2015-Jan-31 01:55 038 3.3
2015-Jan-31 01:45 134 3.3
2015-Jan-31 01:35 359 3.3
2015-Jan-31 01:25 359 3.3
2015-Jan-31 01:15 359 3.9
2015-Jan-31 01:05 359 3.3
2015-Jan-31 00:55 049 3.3
2015-Jan-31 00:45 049 3.3
2015-Jan-31 00:35 049 3.3
2015-Jan-31 00:25 049 3.9
2015-Jan-31 00:15 075 3.3
2015-Jan-31 00:05 086 3.3
2015-Jan-30 23:55 180 3.3
2015-Jan-30 23:45 180 3.3
2015-Jan-30 23:35 180 3.3
2015-Jan-30 23:25 180 3.3
2015-Jan-30 23:15 180 3.3
2015-Jan-30 23:05 180 3.3
2015-Jan-30 22:55 180 3.3
2015-Jan-30 22:45 180 3.3
2015-Jan-30 22:35 180 3.9
2015-Jan-30 22:25 122 3 gusting 19 2.8
2015-Jan-30 22:15 359 2 gusting 19 2.8
2015-Jan-30 22:05 110 2.8
2015-Jan-30 21:55 110 2.8
2015-Jan-30 21:45 110 2.8
2015-Jan-30 21:35 110 2.8
2015-Jan-30 21:25 110 3.3
2015-Jan-30 21:15 110 3.3
2015-Jan-30 21:05 110 3.3
2015-Jan-30 20:55 082 3.3
2015-Jan-30 20:45 089 3.3
2015-Jan-30 20:35 100 3.3
2015-Jan-30 20:25 100 3.3
2015-Jan-30 20:15 100 3.3
2015-Jan-30 20:05 069 3.3
2015-Jan-30 19:55 155 2.8
2015-Jan-30 19:45 229 4 gusting 19 2.8
2015-Jan-30 19:35 173 1 gusting 19 2.8
2015-Jan-30 19:25 084 2.8
2015-Jan-30 19:15 084 2.8
2015-Jan-30 19:05 084 2.8
2015-Jan-30 18:55 084 2.8
2015-Jan-30 18:45 084 3.3
2015-Jan-30 18:35 084 2.8
2015-Jan-30 18:25 170 3.3
2015-Jan-30 18:15 170 3.3
2015-Jan-30 18:05 285 2 gusting 19 3.3
2015-Jan-30 17:55 273 3.3
2015-Jan-30 17:45 283 3.3
2015-Jan-30 17:35 283 3.3
2015-Jan-30 17:25 283 3.3
2015-Jan-30 17:15 323 3.3
2015-Jan-30 17:05 249 6 gusting 19 3.9
2015-Jan-30 16:55 291 9 gusting 33 5.0
2015-Jan-30 16:45 129 5.0
2015-Jan-30 16:35 187 5 gusting 33 5.6
2015-Jan-30 16:25 197 6 gusting 33 5.6
2015-Jan-30 16:15 127 5.6
2015-Jan-30 16:05 292 4 gusting 33 6.7